WAT4855 KLGA-KGSO

Flight info

Callsign WAT4855
Flight time 1h 9m
Altitude 36000
Route BIGGY Q75 GVE AIROW HENBY1
Aircraft A319/M-SDE3FGHIRWY/LB1

Departure

Time 2026-04-24 13:10
Airport LaGuardia Airport (KLGA)

Arrival

Time 2026-04-24 14:20
Airport Piedmont Triad International Airport (KGSO)
Time Latitude Longitude Altitude Speed Heading
2026-04-24 12:39 40.76927 -73.86050 20 ft 0 kts 312°
2026-04-24 13:00 40.76927 -73.86049 -8 ft 2 kts 312°
2026-04-24 13:00 40.76909 -73.86028 20 ft 4 kts 336°
2026-04-24 13:00 40.76886 -73.86023 21 ft 4 kts 28°
2026-04-24 13:01 40.76875 -73.86033 21 ft 1 kts 42°
2026-04-24 13:04 40.76887 -73.86019 22 ft 6 kts 42°
2026-04-24 13:04 40.76937 -73.85960 20 ft 14 kts 42°
2026-04-24 13:04 40.77035 -73.85935 19 ft 11 kts 353°
2026-04-24 13:04 40.77123 -73.85847 13 ft 10 kts 43°
2026-04-24 13:05 40.77170 -73.85868 13 ft 11 kts 307°
2026-04-24 13:05 40.77219 -73.85972 13 ft 16 kts 302°
2026-04-24 13:05 40.77288 -73.86117 13 ft 21 kts 304°
2026-04-24 13:05 40.77377 -73.86304 13 ft 27 kts 302°
2026-04-24 13:06 40.77480 -73.86520 13 ft 20 kts 302°
2026-04-24 13:06 40.77525 -73.86615 12 ft 13 kts 302°
2026-04-24 13:06 40.77583 -73.86736 12 ft 18 kts 302°
2026-04-24 13:06 40.77662 -73.86897 12 ft 24 kts 301°
2026-04-24 13:07 40.77759 -73.87104 13 ft 29 kts 302°
2026-04-24 13:07 40.77872 -73.87340 14 ft 20 kts 301°
2026-04-24 13:07 40.77918 -73.87433 15 ft 13 kts 304°
2026-04-24 13:07 40.77974 -73.87552 16 ft 18 kts 301°
2026-04-24 13:08 40.78051 -73.87713 18 ft 23 kts 303°
2026-04-24 13:08 40.78108 -73.87832 18 ft 16 kts 302°
2026-04-24 13:08 40.78136 -73.87862 18 ft 0 kts 341°
2026-04-24 13:09 40.78152 -73.87868 32 ft 5 kts 344°
2026-04-24 13:09 40.78200 -73.87864 17 ft 9 kts 19°
2026-04-24 13:09 40.78210 -73.87810 16 ft 9 kts 123°
2026-04-24 13:09 40.78190 -73.87769 16 ft 21 kts 123°
2026-04-24 13:10 40.77974 -73.87309 15 ft 94 kts 121°
2026-04-24 13:10 40.77519 -73.86338 34 ft 151 kts 116°
2026-04-24 13:10 40.76958 -73.85218 692 ft 146 kts 119°
2026-04-24 13:10 40.76407 -73.84071 1209 ft 150 kts 114°
2026-04-24 13:11 40.75870 -73.82787 1554 ft 171 kts 112°
2026-04-24 13:11 40.75616 -73.81210 1897 ft 185 kts 79°
2026-04-24 13:11 40.76160 -73.79612 2235 ft 203 kts 43°
2026-04-24 13:11 40.77306 -73.78398 2893 ft 214 kts 33°
2026-04-24 13:12 40.78529 -73.77199 3702 ft 223 kts 32°
2026-04-24 13:12 40.79783 -73.75955 4591 ft 227 kts 28°
2026-04-24 13:12 40.81175 -73.74938 5301 ft 238 kts 17°
2026-04-24 13:12 40.82714 -73.73977 6165 ft 249 kts 17°
2026-04-24 13:13 40.84277 -73.72965 7185 ft 252 kts 18°
2026-04-24 13:13 40.85842 -73.71889 8184 ft 255 kts 16°
2026-04-24 13:13 40.87497 -73.71282 9114 ft 242 kts 354°
2026-04-24 13:13 40.89113 -73.71628 10043 ft 233 kts 333°
2026-04-24 13:14 40.90456 -73.72789 10862 ft 234 kts 314°
2026-04-24 13:14 40.91363 -73.74598 11395 ft 253 kts 295°
2026-04-24 13:14 40.91599 -73.77036 11757 ft 288 kts 270°
2026-04-24 13:14 40.90877 -73.79635 12437 ft 312 kts 252°
2026-04-24 13:15 40.89842 -73.82189 13234 ft 316 kts 251°
2026-04-24 13:15 40.88784 -73.84756 13976 ft 320 kts 251°
2026-04-24 13:15 40.87709 -73.87349 14707 ft 323 kts 251°
2026-04-24 13:15 40.86633 -73.89958 15433 ft 325 kts 251°
2026-04-24 13:16 40.85554 -73.92590 16163 ft 327 kts 251°
2026-04-24 13:16 40.84468 -73.95241 16856 ft 330 kts 251°
2026-04-24 13:16 40.83372 -73.97921 17552 ft 332 kts 251°
2026-04-24 13:16 40.82269 -74.00614 18215 ft 335 kts 250°
2026-04-24 13:17 40.81153 -74.03336 18749 ft 339 kts 250°
2026-04-24 13:17 40.80023 -74.06089 19285 ft 344 kts 250°
2026-04-24 13:17 40.78875 -74.08881 19841 ft 347 kts 250°
2026-04-24 13:17 40.77716 -74.11690 20386 ft 351 kts 250°
2026-04-24 13:18 40.76543 -74.14534 20928 ft 354 kts 250°
2026-04-24 13:18 40.75362 -74.17401 21460 ft 358 kts 250°
2026-04-24 13:18 40.74166 -74.20300 21977 ft 362 kts 250°
2026-04-24 13:18 40.72952 -74.23235 22503 ft 366 kts 250°
2026-04-24 13:19 40.71730 -74.26188 23023 ft 369 kts 250°
2026-04-24 13:19 40.70493 -74.29177 23532 ft 373 kts 250°
2026-04-24 13:19 40.69247 -74.32186 23941 ft 376 kts 249°
2026-04-24 13:19 40.67986 -74.35220 24374 ft 379 kts 249°
2026-04-24 13:20 40.66716 -74.38277 24742 ft 382 kts 249°
2026-04-24 13:20 40.65436 -74.41358 25124 ft 386 kts 249°
2026-04-24 13:20 40.64141 -74.44471 25542 ft 389 kts 249°
2026-04-24 13:20 40.62838 -74.47605 25942 ft 391 kts 249°
2026-04-24 13:21 40.61525 -74.50752 26333 ft 394 kts 249°
2026-04-24 13:21 40.60214 -74.53892 26705 ft 397 kts 249°
2026-04-24 13:21 40.58876 -74.57087 27091 ft 400 kts 249°
2026-04-24 13:21 40.57534 -74.60302 27480 ft 402 kts 249°
2026-04-24 13:22 40.56179 -74.63545 27865 ft 405 kts 249°
2026-04-24 13:22 40.54813 -74.66806 28247 ft 408 kts 249°
2026-04-24 13:22 40.53437 -74.70084 28621 ft 411 kts 248°
2026-04-24 13:22 40.52049 -74.73379 29011 ft 413 kts 248°
2026-04-24 13:23 40.50653 -74.76697 29393 ft 416 kts 248°
2026-04-24 13:23 40.49247 -74.80038 29779 ft 419 kts 248°
2026-04-24 13:23 40.47828 -74.83406 30129 ft 422 kts 248°
2026-04-24 13:23 40.46400 -74.86788 30458 ft 425 kts 248°
2026-04-24 13:24 40.44962 -74.90194 30766 ft 428 kts 248°
2026-04-24 13:24 40.43521 -74.93608 31074 ft 430 kts 248°
2026-04-24 13:24 40.41954 -74.96991 31380 ft 439 kts 242°
2026-04-24 13:24 40.39974 -75.00105 31684 ft 450 kts 234°
2026-04-24 13:25 40.37822 -75.03106 31981 ft 452 kts 234°
2026-04-24 13:25 40.35707 -75.06058 32255 ft 454 kts 233°
2026-04-24 13:25 40.33500 -75.09139 32659 ft 454 kts 233°
2026-04-24 13:25 40.31347 -75.12153 33051 ft 454 kts 234°
2026-04-24 13:26 40.29192 -75.15176 33430 ft 454 kts 234°
2026-04-24 13:26 40.27037 -75.18203 33836 ft 454 kts 234°
2026-04-24 13:26 40.24879 -75.21226 34201 ft 454 kts 234°
2026-04-24 13:26 40.22724 -75.24239 34609 ft 453 kts 233°
2026-04-24 13:27 40.20603 -75.27197 35025 ft 450 kts 233°
2026-04-24 13:27 40.18463 -75.30177 35273 ft 449 kts 233°
2026-04-24 13:27 40.16328 -75.33146 35533 ft 447 kts 233°
2026-04-24 13:27 40.14200 -75.36101 35779 ft 446 kts 233°
2026-04-24 13:28 40.12078 -75.39045 35911 ft 443 kts 233°
2026-04-24 13:28 40.09975 -75.41961 35935 ft 438 kts 233°
2026-04-24 13:28 40.05812 -75.47746 35945 ft 437 kts 233°
2026-04-24 13:29 40.01650 -75.53510 35942 ft 436 kts 233°
2026-04-24 13:29 39.97491 -75.59259 35942 ft 435 kts 233°
2026-04-24 13:30 39.93341 -75.64977 35942 ft 434 kts 233°
2026-04-24 13:30 39.89300 -75.70791 35940 ft 431 kts 236°
2026-04-24 13:31 39.85554 -75.76856 35932 ft 429 kts 238°
2026-04-24 13:31 39.81865 -75.82965 35915 ft 430 kts 238°
2026-04-24 13:32 39.78114 -75.89021 35915 ft 431 kts 237°
2026-04-24 13:32 39.74311 -75.95043 35908 ft 431 kts 237°
2026-04-24 13:33 39.70529 -76.01016 35914 ft 431 kts 237°
2026-04-24 13:33 39.66727 -76.07039 35917 ft 431 kts 237°
2026-04-24 13:34 39.62930 -76.13058 35910 ft 431 kts 237°
2026-04-24 13:34 39.59122 -76.19058 35904 ft 430 kts 236°
2026-04-24 13:35 39.55271 -76.25004 35917 ft 431 kts 236°
2026-04-24 13:35 39.51398 -76.30921 35923 ft 430 kts 236°
2026-04-24 13:36 39.47527 -76.36834 35916 ft 430 kts 236°
2026-04-24 13:36 39.43519 -76.42607 35910 ft 432 kts 232°
2026-04-24 13:37 39.39284 -76.48062 35933 ft 432 kts 230°
2026-04-24 13:37 39.34990 -76.53489 35953 ft 431 kts 231°
2026-04-24 13:38 39.30759 -76.58955 35955 ft 430 kts 231°
2026-04-24 13:38 39.26566 -76.64451 35934 ft 429 kts 231°
2026-04-24 13:39 39.22379 -76.69936 35930 ft 429 kts 231°
2026-04-24 13:39 39.18178 -76.75391 35934 ft 428 kts 231°
2026-04-24 13:40 39.13976 -76.80818 35967 ft 428 kts 231°
2026-04-24 13:40 39.09779 -76.86240 35962 ft 427 kts 231°
2026-04-24 13:41 39.05579 -76.91665 35900 ft 427 kts 231°
2026-04-24 13:41 39.01403 -76.97039 35911 ft 427 kts 231°
2026-04-24 13:42 38.97198 -77.02443 35915 ft 427 kts 231°
2026-04-24 13:42 38.93002 -77.07849 35911 ft 427 kts 231°
2026-04-24 13:43 38.88800 -77.13259 35912 ft 427 kts 231°
2026-04-24 13:43 38.84597 -77.18652 35903 ft 427 kts 231°
2026-04-24 13:44 38.80389 -77.24032 35873 ft 427 kts 230°
2026-04-24 13:44 38.76174 -77.29401 35878 ft 427 kts 230°
2026-04-24 13:45 38.71946 -77.34756 35884 ft 428 kts 229°
2026-04-24 13:45 38.67550 -77.39917 35932 ft 430 kts 227°
2026-04-24 13:46 38.63096 -77.44939 35923 ft 429 kts 227°
2026-04-24 13:46 38.58640 -77.50003 35941 ft 428 kts 227°
2026-04-24 13:47 38.54225 -77.55095 35947 ft 427 kts 228°
2026-04-24 13:47 38.49815 -77.60180 35919 ft 427 kts 227°
2026-04-24 13:48 38.45399 -77.65250 35913 ft 427 kts 227°
2026-04-24 13:48 38.40980 -77.70306 35927 ft 426 kts 227°
2026-04-24 13:49 38.36566 -77.75354 35928 ft 426 kts 227°
2026-04-24 13:49 38.32186 -77.80364 35928 ft 426 kts 227°
2026-04-24 13:50 38.27771 -77.85385 35939 ft 426 kts 227°
2026-04-24 13:50 38.23354 -77.90399 35931 ft 425 kts 227°
2026-04-24 13:51 38.18946 -77.95409 35939 ft 425 kts 227°
2026-04-24 13:51 38.14538 -78.00412 35931 ft 425 kts 227°
2026-04-24 13:52 38.10118 -78.05411 35928 ft 425 kts 227°
2026-04-24 13:52 38.05696 -78.10403 35930 ft 426 kts 227°
2026-04-24 13:53 38.01296 -78.15432 35920 ft 423 kts 231°
2026-04-24 13:53 37.97391 -78.20962 35924 ft 421 kts 233°
2026-04-24 13:54 37.93529 -78.26475 35915 ft 421 kts 233°
2026-04-24 13:54 37.89632 -78.32019 35919 ft 421 kts 233°
2026-04-24 13:55 37.85731 -78.37553 35929 ft 421 kts 233°
2026-04-24 13:55 37.81829 -78.43075 35933 ft 421 kts 233°
2026-04-24 13:56 37.77924 -78.48592 35943 ft 421 kts 233°
2026-04-24 13:56 37.74018 -78.54104 35942 ft 421 kts 233°
2026-04-24 13:57 37.70112 -78.59611 35942 ft 421 kts 233°
2026-04-24 13:57 37.66210 -78.65115 35600 ft 421 kts 233°
2026-04-24 13:58 37.64251 -78.67872 35338 ft 421 kts 233°
2026-04-24 13:58 37.62295 -78.70620 35084 ft 421 kts 233°
2026-04-24 13:58 37.60334 -78.73369 34843 ft 422 kts 233°
2026-04-24 13:58 37.58369 -78.76118 34600 ft 421 kts 233°
2026-04-24 13:59 37.57069 -78.77938 34447 ft 421 kts 233°
2026-04-24 13:59 37.54463 -78.81582 34045 ft 416 kts 233°
2026-04-24 13:59 37.53184 -78.83369 33719 ft 415 kts 233°
2026-04-24 13:59 37.50613 -78.86959 33097 ft 410 kts 233°
2026-04-24 14:00 37.49352 -78.88719 32802 ft 407 kts 233°
2026-04-24 14:00 37.46852 -78.92203 32216 ft 403 kts 233°
2026-04-24 14:00 37.44981 -78.94807 31766 ft 400 kts 233°
2026-04-24 14:00 37.43126 -78.97391 31319 ft 397 kts 233°
2026-04-24 14:01 37.41286 -78.99953 30892 ft 393 kts 233°
2026-04-24 14:01 37.39461 -79.02495 30458 ft 391 kts 233°
2026-04-24 14:01 37.38228 -79.04209 30171 ft 389 kts 233°
2026-04-24 14:01 37.36419 -79.06723 29698 ft 386 kts 233°
2026-04-24 14:02 37.34627 -79.09213 29281 ft 382 kts 233°
2026-04-24 14:02 37.32851 -79.11682 28875 ft 378 kts 233°
2026-04-24 14:02 37.31093 -79.14121 28477 ft 375 kts 232°
2026-04-24 14:02 37.29356 -79.16494 27991 ft 375 kts 230°
2026-04-24 14:03 37.27202 -79.18468 26952 ft 394 kts 211°
2026-04-24 14:03 37.24687 -79.19907 25889 ft 399 kts 208°
2026-04-24 14:03 37.22141 -79.21315 24871 ft 401 kts 207°
2026-04-24 14:03 37.19596 -79.22711 24145 ft 396 kts 207°
2026-04-24 14:04 37.17083 -79.24087 23446 ft 391 kts 207°
2026-04-24 14:04 37.14611 -79.25442 22614 ft 386 kts 207°
2026-04-24 14:04 37.12175 -79.26783 21806 ft 380 kts 207°
2026-04-24 14:04 37.09761 -79.28122 21167 ft 378 kts 207°
2026-04-24 14:05 37.07380 -79.29446 20418 ft 371 kts 206°
2026-04-24 14:05 37.05029 -79.30753 19638 ft 367 kts 206°
2026-04-24 14:05 37.02710 -79.32039 18869 ft 362 kts 206°
2026-04-24 14:05 37.00418 -79.33310 18091 ft 358 kts 206°
2026-04-24 14:06 36.98173 -79.34556 17550 ft 355 kts 206°
2026-04-24 14:06 36.95928 -79.35800 17013 ft 349 kts 206°
2026-04-24 14:06 36.93726 -79.37018 16589 ft 344 kts 206°
2026-04-24 14:06 36.91550 -79.38218 16166 ft 339 kts 206°
2026-04-24 14:07 36.89403 -79.39400 15744 ft 335 kts 206°
2026-04-24 14:07 36.87278 -79.40571 15339 ft 332 kts 206°
2026-04-24 14:07 36.85175 -79.41729 14934 ft 329 kts 206°
2026-04-24 14:07 36.83091 -79.42878 14534 ft 326 kts 206°
2026-04-24 14:08 36.81025 -79.44018 14141 ft 323 kts 206°
2026-04-24 14:08 36.78982 -79.45144 13737 ft 319 kts 206°
2026-04-24 14:08 36.76966 -79.46255 13322 ft 314 kts 206°
2026-04-24 14:08 36.74992 -79.47340 12941 ft 308 kts 206°
2026-04-24 14:09 36.73049 -79.48407 12564 ft 302 kts 206°
2026-04-24 14:09 36.71136 -79.49452 12197 ft 298 kts 206°
2026-04-24 14:09 36.69243 -79.50486 11832 ft 296 kts 206°
2026-04-24 14:09 36.67360 -79.51516 11469 ft 295 kts 206°
2026-04-24 14:10 36.65482 -79.52546 11101 ft 294 kts 206°
2026-04-24 14:10 36.63617 -79.53569 10739 ft 293 kts 206°
2026-04-24 14:10 36.61756 -79.54590 10401 ft 291 kts 206°
2026-04-24 14:10 36.59918 -79.55597 10169 ft 285 kts 206°
2026-04-24 14:11 36.58111 -79.56588 9857 ft 283 kts 206°
2026-04-24 14:11 36.56311 -79.57573 9485 ft 282 kts 206°
2026-04-24 14:11 36.52753 -79.59511 8677 ft 280 kts 206°
2026-04-24 14:12 36.50964 -79.60484 8265 ft 280 kts 206°
2026-04-24 14:12 36.49181 -79.61456 7863 ft 279 kts 206°
2026-04-24 14:12 36.47408 -79.62421 7512 ft 278 kts 206°
2026-04-24 14:12 36.45633 -79.63389 7157 ft 280 kts 206°
2026-04-24 14:13 36.43847 -79.64363 6805 ft 280 kts 206°
2026-04-24 14:13 36.42059 -79.65334 6439 ft 281 kts 206°
2026-04-24 14:13 36.40272 -79.66305 6072 ft 281 kts 205°
2026-04-24 14:13 36.38488 -79.67276 5702 ft 277 kts 206°
2026-04-24 14:14 36.36758 -79.68217 5554 ft 263 kts 206°
2026-04-24 14:14 36.35102 -79.69117 5477 ft 256 kts 206°
2026-04-24 14:14 36.31944 -79.70831 5259 ft 239 kts 206°
2026-04-24 14:15 36.30452 -79.71637 5157 ft 230 kts 206°
2026-04-24 14:15 36.29004 -79.72419 5053 ft 226 kts 205°
2026-04-24 14:15 36.27564 -79.73199 4956 ft 225 kts 205°
2026-04-24 14:15 36.26129 -79.73976 4856 ft 225 kts 205°
2026-04-24 14:16 36.24699 -79.74771 4700 ft 226 kts 210°
2026-04-24 14:16 36.23520 -79.76042 4328 ft 226 kts 230°
2026-04-24 14:16 36.22426 -79.77440 4021 ft 225 kts 228°
2026-04-24 14:17 36.20278 -79.80177 3443 ft 220 kts 229°
2026-04-24 14:17 36.19220 -79.81533 3165 ft 217 kts 229°
2026-04-24 14:17 36.17126 -79.84214 2632 ft 213 kts 228°
2026-04-24 14:18 36.16119 -79.85502 2332 ft 202 kts 229°
2026-04-24 14:18 36.15183 -79.86697 2077 ft 185 kts 228°
2026-04-24 14:18 36.14321 -79.87800 1849 ft 172 kts 228°
2026-04-24 14:18 36.13520 -79.88824 1640 ft 159 kts 227°
2026-04-24 14:19 36.12773 -79.89786 1423 ft 150 kts 227°
2026-04-24 14:19 36.12064 -79.90691 1222 ft 144 kts 227°
2026-04-24 14:19 36.11381 -79.91576 1051 ft 141 kts 228°
2026-04-24 14:19 36.10709 -79.92432 954 ft 130 kts 228°
2026-04-24 14:20 36.10152 -79.93145 926 ft 85 kts 224°
2026-04-24 14:20 36.09901 -79.93456 919 ft 41 kts 226°
2026-04-24 14:20 36.09713 -79.93693 912 ft 25 kts 227°
2026-04-24 14:20 36.09686 -79.93792 911 ft 9 kts 318°
2026-04-24 14:21 36.09732 -79.93841 914 ft 8 kts 317°
2026-04-24 14:21 36.09776 -79.93892 915 ft 9 kts 322°
2026-04-24 14:21 36.09830 -79.93862 917 ft 10 kts 49°
2026-04-24 14:21 36.09879 -79.93799 922 ft 11 kts 45°
2026-04-24 14:22 36.09926 -79.93737 922 ft 9 kts 46°
2026-04-24 14:22 36.09964 -79.93688 922 ft 7 kts 47°
2026-04-24 14:22 36.10032 -79.93602 923 ft 7 kts 46°
2026-04-24 14:23 36.10066 -79.93557 924 ft 7 kts 45°
2026-04-24 14:23 36.10106 -79.93512 925 ft 8 kts 42°
2026-04-24 14:23 36.10148 -79.93456 927 ft 9 kts 49°
2026-04-24 14:23 36.10194 -79.93393 928 ft 10 kts 47°
2026-04-24 14:24 36.10248 -79.93325 927 ft 12 kts 44°
2026-04-24 14:24 36.10307 -79.93250 929 ft 13 kts 47°
2026-04-24 14:24 36.10366 -79.93175 932 ft 11 kts 44°
2026-04-24 14:24 36.10425 -79.93181 932 ft 9 kts 309°
2026-04-24 14:25 36.10485 -79.93220 932 ft 10 kts 336°
2026-04-24 14:25 36.10502 -79.93294 929 ft 10 kts 257°
2026-04-24 14:25 36.10500 -79.93370 928 ft 0 kts 270°